Regional Weather Roundup
Issued by NWS Northern Indiana

Home | Current Version | Previous Version | Text Only | Print | Product List | Glossary Off
Versions: 1 2 3 4 5 6 7 8 9 10 11 12 13 14 15 16 17 18 19 20 21 22 23 24 25 26 27 28 29 30 31 32 33 34 35 36 37 38 39 40 41 42 43 44 45 46 47 48 49 50

000
ASUS43 KIWX 011300
RWRIWX

KIWX WEATHER ROUNDUP
NATIONAL WEATHER SERVICE NORTHERN INDIANA
900 AM EDT TUE SEP 01 2015

NOTE: "FAIR" INDICATES FEW OR NO CLOUDS BELOW 12,000 FEET WITH NO
SIGNIFICANT WEATHER AND/OR OBSTRUCTIONS TO VISIBILITY.

* THESE STATIONS ARE NOT UNDER NWS QUALITY CONTROL. THEY ALSO MAY NOT
  REPORT WEATHER SUCH AS PRECIPITATION OR FOG.

INZ001>027-011400-
NORTHERN INDIANA

CITY           SKY/WX    TMP DP  RH WIND       PRES   REMARKS
GARY*          MOSUNNY   73  70  88 SW7       30.08R
SOUTH BEND     SUNNY     72  69  90 S6        30.11R
ELKHART*       SUNNY     72  72 100 CALM      30.12R
GOSHEN         SUNNY     73  70  90 S5        30.11S FOG
ANGOLA*        SUNNY     73  66  78 SW3       30.12S
FORT WAYNE     SUNNY     73  69  87 SW5       30.13S
PERU/GRISSOM   SUNNY     74  69  85 SW6       30.11S

$$
INZ028>050-011400-
CENTRAL INDIANA

CITY           SKY/WX    TMP DP  RH WIND       PRES   REMARKS
LAFAYETTE      MOSUNNY   72  68  87 S3        30.11R
KOKOMO*        PTSUNNY   72  61  68 S5        30.13S
MUNCIE*        SUNNY     72  68  87 SW5       30.14S
INDIANAPOLIS   MOSUNNY   73  67  81 S5        30.13S

$$
MIZ043>046-050>051-056>058-064>065-071>073-077>080-011400-
SOUTHWEST LOWER MICHIGAN

CITY           SKY/WX    TMP DP  RH WIND       PRES   REMARKS
BATTLE CREEK   SUNNY     71  69  93 S5        30.11R FOG
BENTON HARBOR  MOSUNNY   72  69  90 S3        30.08R FOG
COLDWATER*     SUNNY     72  71  98 SW5       30.12R FOG
HILLSDALE*     SUNNY     73  73 100 CALM      30.12S
HOLLAND        SUNNY     71  69  93 S3        30.08S FOG
GRAND RAPIDS   MOSUNNY   70  68  93 CALM      30.09R FOG
KALAMAZOO      SUNNY     71  68  90 S6        30.11R FOG
STURGIS*       SUNNY     70  70 100 S3        30.11S FOG
THREE RIVERS*  FAIR      69  69 100 N3        30.11S FOG

$$
OHZ001>008-015>018-024>025-011400-
NORTHWEST OHIO

CITY           SKY/WX    TMP DP  RH WIND       PRES   REMARKS
DEFIANCE       SUNNY     73  69  87 SW3       30.12S FOG
FINDLAY        SUNNY     73  69  87 SW5       30.12S FOG
TOLEDO EXPRESS SUNNY     72  69  90 W6        30.11S FOG
TOLEDO METCALF SUNNY     72  67  84 SW6       30.12S HAZE
LIMA           SUNNY     72  67  84 SW5       30.15R HAZE

$$
AND FOR LAKE MICHIGAN COASTAL AND OPEN LAKE BUOY OBSERVATIONS

STATION/POSITION TEMP    WIND        PRES    VSBY  WAVE
                 AIR SEA DIR/SP/G                  HT/PER
                 (F)     (DEG/KT/KT) (MB)    (MI)  (FT/S)
CALUMET HARBOR    72     200/  3/  4   N/A
MICHIGAN CITY     72     140/  9/ 10   N/A
BURNS HARBOR      73     180/  7/ 12 1018.6R
SAINT JOSEPH      71     110/  2/  5 1019.0R
SOUTH LAKE BUOY   71 69  190/  8/ 10 1017.1R         0
4 MI NW BRIDGMAN  72 71  210/  8/ 10   N/A           1
MICHIGAN CITY     72 72  180/  8/ 10   N/A           1

$$
&&


USA.gov is the U.S. government's official web portal to all federal, state and local government web resources and services.